Theta_e
273 272 272 271 271 270 269 269 268 268 267 267 267 267 266 266 267 266 266 267 267 267 268 268 269 269 269 269 271 270 269 269 265 268 270 272 273 274 276 277 279 279 281
272 271 270 270 269 269 268 267 268 266 267 266 266 266 266 266 266 265 265 266 266 267 268 269 269 271 269 270 269 268 268 269 268 266 269 271 272 274 274 275 278 281 281
270 270 269 269 268 267 267 267 266 266 265 265 265 265 265 265 265 265 266 267 267 268 269 269 270 271 270 271 270 270 270 271 270 269 268 270 271 273 273 275 276 280 282
270 269 268 268 267 267 266 266 265 265 264 264 264 264 265 265 265 265 267 267 268 270 270 271 272 272 272 272 272 271 271 270 270 269 269 269 270 272 274 274 275 281 281
267 267 266 266 266 265 265 264 264 264 264 264 264 264 264 264 265 267 269 269 269 269 270 272 273 273 274 274 273 273 274 272 271 271 271 271 271 272 273 277 277 280 280
263 263 262 263 263 263 263 263 263 263 263 263 263 263 263 264 268 271 272 269 269 270 269 270 271 271 271 274 275 277 278 275 274 271 271 271 272 273 276 276 278 277 274
261 260 260 259 260 260 261 261 261 261 261 261 262 262 262 263 268 271 272 270 270 269 269 270 270 270 269 270 274 277 278 279 280 277 275 275 275 277 277 279 277 276 276
258 257 257 257 258 259 259 259 259 260 260 261 261 262 263 263 269 271 272 270 269 269 269 268 268 268 269 272 273 274 275 275 281 279 278 278 279 280 280 278 277 275 277
258 258 257 256 258 258 258 258 259 260 261 260 262 262 261 261 268 270 271 269 268 268 269 270 269 268 272 276 274 273 272 276 282 284 285 284 284 284 280 277 273 272 270
262 261 261 259 258 258 258 259 261 261 261 262 262 262 262 262 267 270 271 269 268 267 269 270 272 270 274 276 273 272 270 275 276 276 276 276 276 278 279 277 276 270 269
264 262 261 260 259 259 260 261 260 260 261 260 261 262 263 263 265 271 272 270 268 269 268 268 268 272 274 275 276 271 274 276 274 274 274 274 273 272 272 273 273 272 267
262 260 260 259 260 262 260 260 261 261 260 260 260 262 265 265 268 269 272 272 273 269 267 267 267 272 273 273 273 277 280 275 273 272 272 271 271 270 271 271 271 270 270
259 258 258 259 261 261 260 260 260 260 260 260 261 263 263 265 265 269 270 272 272 268 267 267 269 270 270 269 271 273 271 274 271 270 269 269 269 269 270 269 269 268 270
256 258 259 259 259 259 260 261 260 260 260 262 263 263 263 263 264 266 269 270 270 266 263 261 265 266 268 267 266 267 267 268 269 270 269 269 270 268 267 265 263 264 266
257 258 258 258 258 258 260 260 261 263 264 264 264 264 263 262 266 270 271 269 266 268 258 257 259 260 261 261 263 263 264 264 264 266 266 267 268 269 268 267 264 265 263
256 257 257 257 257 258 259 259 264 266 267 268 268 267 266 269 270 271 271 270 268 267 252 250 256 258 259 260 260 261 262 262 262 263 263 263 264 265 265 266 265 264 263
255 256 256 257 257 257 258 258 256 260 265 265 266 267 268 268 269 271 270 268 265 261 247 250 254 255 257 259 259 259 259 260 261 260 259 258 258 260 261 261 262 261 261
251 254 255 256 257 257 257 257 258 256 256 257 262 265 266 267 269 270 268 262 252 252 246 248 249 252 255 255 255 256 258 258 256 256 254 252 252 251 252 253 255 253 255
253 254 255 256 256 257 257 257 257 256 256 256 257 260 262 265 267 266 265 257 249 249 247 247 248 249 251 251 251 249 249 250 251 249 250 248 248 249 248 248 250 251 250
251 255 255 256 255 256 257 256 256 256 256 256 257 257 258 262 260 259 259 258 257 253 251 249 250 248 247 247 247 247 247 247 248 248 248 247 247 247 248 248 247 249 248
252 253 255 254 255 256 256 255 256 256 256 256 257 259 266 262 259 258 258 258 258 257 255 251 251 249 248 247 245 245 245 248 246 246 246 246 246 249 246 247 246 245 246
249 251 252 253 256 255 255 255 256 256 257 257 258 259 265 259 259 259 259 259 259 259 259 256 254 251 251 250 249 249 248 249 246 245 245 245 246 246 246 246 246 246 246
250 251 253 254 254 255 255 255 256 257 257 257 258 258 259 260 260 260 260 261 261 260 260 259 256 254 251 250 250 251 251 251 251 249 247 245 245 245 245 246 246 245 245
248 249 251 252 253 254 255 255 255 256 257 258 258 259 260 260 261 261 262 262 262 262 262 261 260 258 255 253 251 251 251 252 249 250 249 248 247 245 244 244 245 245 245
246 247 248 251 252 253 254 255 255 256 257 258 259 259 260 261 261 262 263 263 263 263 263 263 262 262 261 258 256 253 252 257 253 251 250 249 249 247 245 246 246 245 245
247 247 247 249 251 252 253 254 254 256 256 258 258 259 260 260 261 262 263 264 265 266 266 266 265 264 263 262 261 260 258 259 257 256 254 253 252 251 250 249 248 248 248
Wind_Speed
7 9 9 8 9 9 10 9 10 11 11 11 12 13 13 13 12 12 13 14 13 14 14 14 16 16 11 11 9 9 10 9 11 12 11 12 15 14 13 12 14 14 14
6 8 9 9 10 10 9 11 10 11 11 12 11 13 13 13 13 13 14 14 15 15 17 17 18 13 15 14 10 12 11 11 10 17 13 11 13 11 15 16 13 12 13
6 7 9 9 9 10 10 11 11 11 11 11 12 13 13 13 13 13 14 14 16 16 17 17 18 18 16 13 13 11 11 10 11 12 14 10 11 10 12 13 14 14 11
7 7 9 9 10 10 11 12 11 11 11 11 11 12 12 13 14 14 15 16 16 15 17 17 17 17 16 16 13 15 14 13 12 12 12 12 10 11 9 11 13 8 3
6 6 8 9 10 11 12 12 11 10 10 11 13 12 13 11 10 15 15 15 14 16 17 16 16 18 26 24 14 14 13 13 12 11 12 10 11 9 10 8 9 2 1
5 6 6 8 10 11 11 11 11 11 11 11 11 13 14 11 22 25 22 13 15 14 14 17 16 16 20 29 30 31 26 17 12 12 12 13 15 10 9 10 4 1 1
6 6 6 8 10 11 10 11 11 11 11 12 12 12 13 13 24 25 25 13 11 13 14 13 12 10 17 17 26 31 27 32 30 20 16 15 11 10 9 6 1 2 2
6 6 7 7 9 10 10 10 11 9 11 11 12 12 12 12 24 25 25 12 13 13 13 12 10 14 16 22 20 19 21 19 10 3 11 14 8 8 6 1 2 2 2
6 7 7 6 10 10 10 10 11 10 11 10 11 12 12 13 24 24 21 12 12 11 10 12 9 14 25 31 19 17 19 15 15 21 19 11 11 10 7 4 3 3 3
8 9 10 9 9 10 11 11 10 10 11 10 13 12 13 14 21 25 21 8 9 9 11 10 17 19 30 29 17 14 15 10 9 12 12 15 16 15 16 7 2 3 2
10 11 11 10 11 10 10 10 10 10 10 9 12 12 13 12 13 25 23 10 9 8 9 8 9 27 27 27 27 16 10 3 9 8 8 8 9 9 7 7 8 4 3
9 10 11 11 10 9 11 9 10 9 10 10 11 10 8 10 18 19 25 23 22 9 9 8 11 26 25 25 20 30 17 11 6 7 8 8 7 7 7 7 9 9 7
9 9 8 10 10 11 10 10 8 9 8 10 9 9 9 8 10 23 24 24 18 10 9 16 21 21 21 16 23 24 18 7 7 8 7 7 6 5 5 4 4 4 10
8 9 8 9 10 10 8 7 8 8 9 9 8 9 8 9 10 10 8 8 11 7 11 8 13 15 16 16 13 15 11 10 8 7 7 6 5 6 6 4 3 4 5
7 7 8 7 8 9 10 8 8 8 11 10 8 8 9 9 10 19 18 8 9 9 7 5 6 8 9 10 9 11 10 10 10 8 8 7 6 6 6 5 3 5 6
7 6 6 7 7 7 8 11 14 17 20 19 19 15 8 18 23 24 22 19 18 18 5 3 6 7 7 8 8 8 9 10 8 7 7 6 6 5 5 5 5 5 5
6 8 6 7 7 8 8 8 12 15 18 17 20 21 20 20 23 22 21 17 15 10 2 3 3 5 5 6 6 6 7 6 6 5 5 5 4 4 5 5 5 4 4
5 7 5 6 7 8 8 8 8 9 12 13 16 19 19 22 22 21 18 11 5 5 1 2 3 3 3 3 3 3 5 5 3 4 4 3 4 3 4 4 4 3 3
5 4 5 6 7 8 7 8 7 8 9 10 11 13 12 22 19 18 15 2 2 3 3 3 3 3 3 2 3 3 2 3 2 3 3 3 3 3 3 3 3 5 3
4 7 6 6 7 7 6 7 8 8 9 9 9 10 11 10 9 9 6 5 5 4 4 4 4 3 4 3 3 3 3 3 3 3 3 2 2 2 2 2 2 2 2
3 4 6 5 6 6 6 7 7 7 9 9 10 10 22 11 9 8 8 7 6 6 5 4 4 4 4 4 3 3 3 3 2 3 2 2 2 2 1 1 1 2 2
2 3 3 5 7 7 7 7 7 8 9 10 11 11 23 8 8 8 8 7 7 6 6 6 5 5 5 5 5 4 5 5 4 3 3 3 2 1 1 1 1 1 1
2 3 5 5 6 8 7 6 7 8 9 10 10 11 10 9 9 9 9 9 8 7 6 6 6 6 5 5 5 6 6 6 6 5 4 3 3 2 2 2 2 1 1
2 2 3 5 5 7 7 8 8 9 10 10 10 10 10 10 11 12 10 9 9 8 7 7 7 9 7 6 5 6 6 5 4 6 7 5 4 3 3 2 3 4 3
2 3 3 5 6 7 8 8 8 9 9 9 10 10 11 11 11 11 11 10 9 9 9 8 7 10 12 12 10 9 9 12 8 8 5 6 6 7 4 4 4 3 3
2 2 2 4 4 5 6 7 8 9 9 10 10 10 11 11 11 11 12 12 11 12 12 8 9 13 13 10 12 12 12 13 11 12 8 7 6 6 5 6 6 4 5
Wind_Direction
349 334 336 334 333 327 325 325 316 319 317 317 317 320 319 318 319 314 307 302 303 296 295 296 293 291 287 283 284 282 276 275 280 281 275 279 279 278 277 281 275 277 275
332 331 332 330 326 322 318 317 316 313 314 314 316 317 315 313 315 309 309 298 294 301 299 297 290 289 283 276 275 273 269 270 267 273 279 276 274 279 278 278 275 269 267
324 324 324 325 322 316 316 312 314 311 311 310 315 310 309 312 308 311 292 296 297 295 294 293 295 292 285 275 267 264 264 265 262 266 274 275 272 273 275 273 272 269 256
319 325 323 323 321 317 314 314 311 310 308 308 309 303 308 305 309 298 300 294 293 295 298 299 305 306 303 294 270 258 252 252 253 257 263 270 268 271 263 275 281 269 243
321 316 320 322 320 317 315 313 309 306 306 303 305 303 305 304 302 298 298 293 302 300 301 309 311 316 323 323 320 311 283 247 243 241 251 259 262 270 268 273 287 225 95
313 315 313 315 316 314 313 312 309 307 305 304 302 302 305 303 308 308 309 308 300 301 310 310 316 318 322 320 316 311 310 309 292 242 249 248 256 260 266 279 216 189 265
326 312 310 309 312 313 310 308 307 309 308 302 303 303 300 302 309 314 314 306 313 307 304 310 308 317 315 312 308 312 312 301 286 263 250 244 256 261 268 272 358 50 40
313 305 297 298 305 308 310 306 306 308 305 305 307 300 304 304 318 317 317 321 306 306 307 307 304 312 312 312 315 316 311 308 317 235 233 251 239 246 247 168 78 71 32
307 300 300 302 308 314 310 307 302 303 306 308 305 308 305 301 314 320 321 312 308 305 304 306 306 312 314 322 325 320 322 326 13 47 54 78 177 139 106 88 43 52 16
329 320 317 313 306 307 304 306 306 311 305 309 306 304 303 298 308 317 325 311 319 307 303 311 325 328 323 329 329 327 316 319 11 35 36 45 50 52 50 41 50 89 61
325 320 319 319 311 304 307 316 311 310 307 304 301 303 303 297 300 321 326 333 311 306 314 338 333 328 333 336 340 312 277 67 32 42 49 51 44 40 35 36 40 60 75
324 319 319 316 315 318 321 314 319 314 314 307 307 305 311 319 317 322 329 330 322 340 4 340 330 333 338 350 348 351 69 64 49 49 49 43 41 33 31 42 53 57 53
318 312 312 313 319 322 323 321 322 321 314 311 308 322 324 329 313 314 315 318 348 8 356 343 341 344 350 350 3 18 24 39 49 55 51 45 35 15 21 24 25 54 58
305 314 319 322 322 318 318 319 317 320 311 306 323 322 325 326 310 304 314 329 1 49 4 348 354 355 4 3 5 15 18 23 32 41 46 36 30 27 29 11 31 358 49
314 314 320 324 317 319 314 320 322 313 312 328 324 325 326 317 313 335 337 353 356 12 24 355 354 359 4 4 8 11 16 19 25 18 25 26 27 31 28 5 19 42 61
322 330 327 325 320 318 320 318 325 328 335 335 334 335 321 324 330 330 348 10 351 8 24 343 359 0 4 4 5 3 12 15 14 16 22 21 20 23 22 17 32 47 59
324 317 325 323 322 323 325 325 323 327 333 336 339 339 335 334 333 334 348 14 356 23 27 330 344 349 353 0 359 0 1 0 359 13 25 16 8 23 28 26 24 26 36
301 293 311 316 316 318 317 318 315 317 322 324 334 333 337 334 332 346 347 6 343 353 328 289 293 305 322 320 330 338 343 345 349 358 10 9 16 42 32 26 26 45 23
319 313 324 311 311 307 309 314 312 313 312 311 318 325 324 323 328 346 347 309 266 294 286 299 263 277 285 282 288 297 299 313 328 348 358 11 359 50 30 37 39 39 70
293 299 327 311 311 316 316 318 318 319 317 314 316 316 317 312 338 330 324 311 299 271 269 261 265 256 259 260 271 270 300 316 332 342 336 349 347 26 84 63 56 71 38
300 305 319 306 310 313 310 315 313 314 313 312 308 310 322 341 317 311 310 305 294 285 272 249 254 247 237 240 240 242 234 258 252 261 282 302 338 0 24 60 84 91 108
300 294 316 304 310 314 314 307 310 313 313 312 312 313 324 318 308 305 303 297 289 277 268 258 254 235 229 220 216 217 225 233 231 224 234 232 226 208 172 106 51 53 52
329 319 328 311 307 310 316 314 318 318 315 312 311 313 318 316 311 307 302 298 292 284 272 259 247 253 231 227 213 213 215 225 218 192 204 207 208 202 177 192 190 193 183
339 321 317 304 311 321 318 322 318 317 314 313 316 316 316 314 311 308 303 298 292 285 275 264 253 246 245 233 221 216 219 222 194 201 191 184 207 203 184 198 202 207 208
353 335 331 310 319 318 319 322 322 320 321 318 318 317 316 315 314 314 311 307 300 292 280 266 255 252 246 238 232 219 216 228 204 193 186 185 200 199 192 195 196 204 205
341 331 304 306 309 310 318 321 321 320 322 321 318 317 315 316 315 314 316 315 313 308 298 274 253 247 248 244 236 230 224 220 214 202 185 189 199 205 197 213 215 205 214